Regional Weather Roundup
Issued by NWS

Home | Current Version | Previous Version | Text Only | Print | Product List | Glossary On
Versions: 1 2 3 4 5 6 7 8 9 10 11 12 13 14 15 16 17 18 19 20 21 22 23 24 25 26 27 28 29 30 31 32 33 34 35 36 37 38 39 40 41 42 43 44 45 46 47 48 49 50
000
ASUS44 KMEG 040910
RWRTN
TENNESSEE HOURLY STATE WEATHER ROUNDUP
NATIONAL WEATHER SERVICE MEMPHIS TN
400 AM CDT MON MAY 04 2015

TNZ002-004-019-021-049-052-054-088>092-041000-
WEST TENNESSEE

CITY           SKY/WX    TMP DP  RH WIND       PRES   REMARKS
MEMPHIS INTL   PTCLDY    64  54  69 S6        30.10R
NWS MEMPHIS      N/A    N/A N/A N/A MISG        N/A
JACKSON        MOCLDY    65  52  62 S9        30.11R
DYERSBURG      CLEAR     63  43  48 S7        30.10R
PARIS          CLEAR     57  48  72 S5        30.11S
LEXINGTON      CLEAR     52  50  93 CALM      30.13R
$$

TNZ008-025-027-028-033-062-065-066-041000-
NORTH MIDDLE TENNESSEE

CITY           SKY/WX    TMP DP  RH WIND       PRES   REMARKS
NASHVILLE      PTCLDY    57  50  77 S5        30.16R
CLARKSVILLE    PTCLDY    55  51  86 SE3       30.13R
SMYRNA         CLEAR     52  49  89 CALM      30.17R
COOKEVILLE     CLEAR     46  46 100 CALM      30.18R
CROSSVILLE     CLEAR     53  45  74 CALM      30.22R
$$

TNZ061-075-076-078-094-096-097-041000-
SOUTH MIDDLE TENNESSEE

CITY           SKY/WX    TMP DP  RH WIND       PRES   REMARKS
FAYETTEVILLE   CLEAR     57  48  72 CALM      30.17R
TULLAHOMA      CLEAR     48  46  93 CALM      30.19R
WINCHESTER     CLEAR     55  48  76 SE3       30.18R
MCMINNVILLE    CLEAR     50  50 100 CALM      30.18R
COLUMBIA       CLEAR     54  52  94 CALM      30.14R
SHELBYVILLE    CLEAR     54  52  94 E5        30.18R
$$

TNZ017-018-042-046-047-041000-
NORTHEAST TENNESSEE

CITY           SKY/WX    TMP DP  RH WIND       PRES   REMARKS
TRI CITIES     PTCLDY    52  49  89 CALM      30.22R
ELIZABETHTON   MOSUNNY   52  45  76 CALM      30.23S
$$

TNZ012-013-036-069-073-074-041000-
CENTRAL EAST TENNESSEE

CITY           SKY/WX    TMP DP  RH WIND       PRES   REMARKS
KNOXVILLE      PTCLDY    53  49  86 N3        30.19R
OAK RIDGE      CLEAR     52  49  89 CALM      30.22R
GATLINBURG     SUNNY     50  46  87 CALM      30.20R
MORRISTOWN     SUNNY     54  48  82 CALM      30.22R
$$

TNZ083-085-099-041000-
SOUTHEAST TENNESSEE

CITY           SKY/WX    TMP DP  RH WIND       PRES   REMARKS
CHATTANOOGA    CLEAR     53  49  86 W3        30.19R
$$

SKY/WX REPORTED AS FAIR MEANS FEW OR NO CLOUDS BELOW
12 THOUSAND FEET.



USA.gov is the U.S. government's official web portal to all federal, state and local government web resources and services.